+ View the NASA Portal
+ Center for Near-Earth Object Studies
IMPORTANT:
The SSD Announcement email list is now available. Major changes are coming in the near future, including possible hostname and/or URL changes. To be notified of such changes, subscribe to this email list.
Please visit
this page
for more details.
Don't show this message again
JPL Small-Body Database Browser
Search:
[
help
]
277799 (2006 EM73)
Classification:
Main-belt Asteroid
SPK-ID:
2277799
[
Ephemeris
|
Orbit Diagram
|
Orbital Elements
|
Mission Design
|
Physical Parameters
|
Discovery Circumstances
|
Close-Approach Data
]
[ show orbit diagram ]
Orbital Elements at Epoch 2458600.5 (2019-Apr-27.0) TDB
Reference:
JPL 8
(heliocentric ecliptic J2000)
Element
Value
Uncertainty (1-sigma)
Units
e
.08603376917543112
1.2398e-07
a
2.702233644628013
3.6609e-08
au
q
2.469750298988003
3.3398e-07
au
i
3.874340525959102
8.0345e-06
deg
node
164.3354492367393
0.00013393
deg
peri
217.1897590080213
0.00014207
deg
M
139.7592515396531
4.6959e-05
deg
t
p
2457970.615621553179
(2017-Aug-05.11562155)
0.0002115
TDB
period
1622.492777707232
4.44
3.2971e-05
9.027e-08
d
yr
n
.2218808027661739
4.5089e-09
deg/d
Q
2.934716990268024
3.9759e-08
au
Orbit Determination Parameters
# obs. used (total)
103
data-arc span
7054 days (19.31 yr)
first obs. used
1999-11-04
last obs. used
2019-02-26
planetary ephem.
DE431
SB-pert. ephem.
SB431-N16
condition code
0
norm. resid. RMS
.62333
source
ORB
producer
Otto Matic
solution date
2019-Jul-14 10:59:20
Additional Information
Earth MOID
= 1.47264 au
Jupiter MOID
= 2.47297 au
T_jup
= 3.358
[ show covariance matrix ]
[
Ephemeris
|
Orbit Diagram
|
Orbital Elements
|
Mission Design
|
Physical Parameters
|
Discovery Circumstances
|
Close-Approach Data
]
Physical Parameter Table
Parameter
Symbol
Value
Units
Sigma
Reference
Notes
absolute magnitude
H
16.8
n/a
MPO433796
277799 (2006 EM73)
Discovered 2006-Mar-02 by Spacewatch at Kitt Peak
Reference:
20110517/Numbers.arc
Last Updated:
2011-05-20
[ show close-approach data ]
Alternate Designations
2006 EM73
= 2008 TR113
[
Ephemeris
|
Orbit Diagram
|
Orbital Elements
|
Mission Design
|
Physical Parameters
|
Discovery Circumstances
|
Close-Approach Data
]
2019-Dec-16 13:35 UT
(server date/time)
Site Manager:
Ryan S. Park
Webmaster
:
Alan B. Chamberlin